Strona główna
METAR-TAF:

METAR-TAF

Lotnisko :

Río Cuarto, Argentyna

Szerokość geograficzna: 33-07S, Długość geograficzna: 064-14W, wysokość: 420 m

Aktualna obserwacja pogody

Raport powstał 50 minut temu, godzina 09:00 UTC
Wiatr 8 kt od północno-północny zachód
Temperatura 20°C
Wilgotność 53%
Ciśnienie 1008 hPa
Widzialność 10 km lub więcej
Brak chmur poniżej 1500 m i brak chmur cumulonimbus

METAR: SAOC 210900Z 34008KT CAVOK 20/10 Q1008

czas: 06:50 (09:50 UTC)


TAF: brakujący

Obserwacja i prognoza pogody dla ponad 4000 lotnisk (raport METAR i TAF).

Dostępne stacje oznaczono żółtymi i czerwonymi punktami na mapie.

Najedź kursorem aby zobaczyć nazwę stacji.

Kliknij aby zobaczyć obserwacje i prognozy pogody.

Aby zmienić mapę: kliknij na zielony przycisk z czarnym krzyżykiem, aby powiększyć; na zielony przycisk z myślnikiem, aby pomniejszyć; na zielone strzałki, aby przejść do map sąsiednich.


METAR-TAF: